Fort Wayne, IN

5:17 PM EST on November 11, 2019 (GMT -0500)
Fort Wayne International

Weather History for KFWA - September, 2019

Change the Weather History Date:

Friday, September 6, 2019

  Actual Average Record
Temperature  
Mean Temperature 62 °F 68 °F  
Max Temperature 71 °F 80 °F 97 °F (1954)
Min Temperature 52 °F 57 °F 43 °F (1962)
Degree Days  
Heating Degree Days 3 1  
Month to date heating degree days 6 6  
Since 1 July heating degree days 7 18  
Cooling Degree Days 0 4  
Month to date cooling degree days 10 28  
Year to date cooling degree days 848 745  
Growing Degree Days 12 (Base 50)    
Moisture  
Dew Point 58 °F    
Average Humidity 87    
Maximum Humidity 100    
Minimum Humidity 73    
Precipitation  
Precipitation T in 0.09 in 2.48 in (1943)
Month to date precipitation 0.11 0.58  
Year to date precipitation 28.38 27.42  
Sea Level Pressure  
Sea Level Pressure 29.94 in    
Wind  
Wind Speed 6 mph (WSW)    
Max Wind Speed 14 mph    
Max Gust Speed 22 mph    
Visibility 10 miles    
Events Fog , Rain    
T = Trace of Precipitation, MM = Missing Value Source: NWS Daily Summary

Daily Weather History Graph

Daily Weather History Graph

Search for Another Location

Airport or City:

Astronomy

Sep. 06, 2019 Rise Set
Actual Time 7:12 AM EDT 8:05 PM EDT
Civil Twilight 6:44 AM EDT 8:33 PM EDT
Nautical Twilight 6:10 AM EDT 9:06 PM EDT
Astronomical Twilight 5:36 AM EDT 9:40 PM EDT
Moon 3:23 PM EDT (9/6) 12:18 AM EDT (9/6)
Length of Visible Light 13h 49m
Length of Day
12h 53m
First Quarter, 55% of the Moon is Illuminated
Sep 6
First Quarter
Sep 14
Full
Sep 21
Last Quarter
Sep 28
New
Oct 5
First Quarter

Hourly Weather History & Observations

Time (EDT) Temp. Dew Point Humidity Pressure Visibility Wind Dir Wind Speed Gust Speed Precip Events Conditions
12:54 AM 55.0 °F 53.1 °F 93% 30.04 in 10.0 mi Calm Calm - N/A   Partly Cloudy
1:54 AM 53.1 °F 51.1 °F 93% 30.03 in 10.0 mi South 3.5 mph - N/A   Partly Cloudy
2:54 AM 53.1 °F 52.0 °F 96% 30.02 in 10.0 mi West 3.5 mph - N/A   Partly Cloudy
3:54 AM 54.0 °F 51.1 °F 90% 29.98 in 10.0 mi South 4.6 mph - N/A   Partly Cloudy
4:54 AM 53.1 °F 51.1 °F 93% 29.98 in 10.0 mi Calm Calm - N/A Fog Patches of Fog
5:54 AM 54.0 °F 52.0 °F 93% 29.98 in 10.0 mi Calm Calm - N/A   Mostly Cloudy
6:54 AM 54.0 °F 53.1 °F 97% 29.97 in 10.0 mi SSE 4.6 mph - N/A   Scattered Clouds
7:54 AM 55.0 °F 53.1 °F 93% 29.96 in 8.0 mi SSE 5.8 mph - N/A   Scattered Clouds
8:54 AM 59.0 °F 55.9 °F 90% 29.96 in 10.0 mi South 5.8 mph - N/A   Overcast
9:54 AM 63.0 °F 57.0 °F 81% 29.94 in 10.0 mi South 8.1 mph - N/A   Overcast
10:54 AM 64.0 °F 57.0 °F 78% 29.93 in 10.0 mi South 9.2 mph - N/A   Overcast
11:54 AM 66.0 °F 57.9 °F 75% 29.91 in 10.0 mi South 9.2 mph - N/A   Overcast
12:54 PM 68.0 °F 60.1 °F 76% 29.89 in 10.0 mi South 9.2 mph - N/A   Overcast
1:37 PM 69.1 °F 60.1 °F 73% 29.89 in 10.0 mi WSW 6.9 mph - N/A   Overcast
1:54 PM 69.1 °F 61.0 °F 75% 29.89 in 10.0 mi WSW 6.9 mph - N/A   Overcast
2:54 PM 70.0 °F 62.1 °F 76% 29.88 in 10.0 mi West 5.8 mph - N/A   Overcast
3:54 PM 71.1 °F 63.0 °F 75% 29.88 in 10.0 mi WNW 6.9 mph - N/A   Overcast
4:54 PM 70.0 °F 63.0 °F 78% 29.89 in 10.0 mi WNW 9.2 mph 17.3 mph N/A   Overcast
5:54 PM 70.0 °F 64.0 °F 81% 29.89 in 10.0 mi WNW 5.8 mph - N/A   Overcast
6:54 PM 68.0 °F 64.9 °F 90% 29.91 in 8.0 mi NW 9.2 mph - 0.00 in   Light Drizzle
7:14 PM 68.0 °F 64.0 °F 87% 29.92 in 10.0 mi WNW 9.2 mph - 0.00 in   Light Drizzle
7:27 PM 66.9 °F 64.0 °F 90% 29.92 in 10.0 mi NW 8.1 mph - 0.00 in Rain Light Rain
7:54 PM 66.9 °F 63.0 °F 87% 29.93 in 10.0 mi WNW 10.4 mph 16.1 mph 0.00 in   Overcast
8:54 PM 66.0 °F 62.1 °F 87% 29.94 in 10.0 mi WNW 5.8 mph - N/A   Overcast
9:10 PM 64.9 °F 62.1 °F 90% 29.95 in 10.0 mi WNW 8.1 mph - N/A   Overcast
9:32 PM 64.9 °F 61.0 °F 87% 29.96 in 10.0 mi WNW 8.1 mph - N/A   Overcast
9:54 PM 64.0 °F 61.0 °F 90% 29.96 in 10.0 mi WNW 8.1 mph - N/A   Overcast
10:54 PM 64.0 °F 61.0 °F 90% 29.96 in 10.0 mi WNW 6.9 mph - N/A   Overcast
11:54 PM 64.0 °F 61.0 °F 90% 29.97 in 10.0 mi WNW 5.8 mph - N/A   Overcast